GW5043 Weather Reports


Display with metric or nautical units.
time (UTC)temp
F
wind
direction
speed
MPH
gust
MPH
rain 1hr
in
rain 24hr
in
rain mn
in
humidity
%
barometer
mb
20260906113019 70 72 3.0 4.0 0.00 0.00 0.00 85 1017.8
20260906112019 70 77 3.0 5.0 0.00 0.00 0.00 84 1017.7
20260906111025 70 73 2.0 5.0 0.00 0.00 0.00 84 1017.6
20260906110045 70 78 2.0 4.0 0.00 0.00 0.00 84 1017.6
20260906105025 70 78 2.0 3.0 0.00 0.00 0.00 84 1017.5
20260906104026 70 74 2.0 4.0 0.00 0.00 0.00 84 1017.3
20260906103026 71 65 2.0 3.0 0.00 0.00 0.00 84 1017.1
20260906102026 71 81 2.0 4.0 0.00 0.00 0.00 84 1017.1
20260906101026 71 76 2.0 5.0 0.00 0.00 0.00 84 1017.1
20260906100026 71 69 1.0 4.0 0.00 0.00 0.00 83 1017.1
20260906095026 72 82 2.0 3.0 0.00 0.00 0.00 83 1017.1
20260906094026 72 71 2.0 3.0 0.00 0.00 0.00 82 1017.0
20260906093027 72 71 2.0 3.0 0.00 0.00 0.00 82 1017.0
20260906092027 72 82 2.0 3.0 0.00 0.00 0.00 81 1017.0
20260906091107 72 79 2.0 4.0 0.00 0.00 0.00 82 1017.0
20260906090027 72 69 2.0 3.0 0.00 0.00 0.00 82 1016.9
20260906085027 73 86 1.0 2.0 0.00 0.00 0.00 81 1017.0
20260906084048 73 95 2.0 3.0 0.00 0.00 0.00 81 1016.9
20260906083028 73 87 1.0 2.0 0.00 0.00 0.00 82 1016.8
20260906082028 72 90 1.0 3.0 0.00 0.00 0.00 82 1016.8
20260906081028 73 93 2.0 4.0 0.00 0.00 0.00 83 1016.9
20260906080048 73 78 2.0 3.0 0.00 0.00 0.00 83 1016.9
20260906075049 73 96 2.0 3.0 0.00 0.00 0.00 83 1016.9
20260906074048 73 86 1.0 3.0 0.00 0.00 0.00 83 1016.8
20260906073028 73 87 2.0 4.0 0.00 0.00 0.00 83 1016.9
20260906072029 73 83 1.0 2.0 0.00 0.00 0.00 83 1017.0
20260906071029 73 90 1.0 2.0 0.00 0.00 0.00 84 1017.0
20260906070029 73 72 2.0 3.0 0.00 0.00 0.00 84 1016.9
20260906065029 73 64 2.0 5.0 0.00 0.00 0.00 84 1017.0
20260906064029 73 72 2.0 3.0 0.00 0.00 0.00 83 1016.9
20260906063029 73 70 2.0 4.0 0.00 0.00 0.00 83 1016.9
20260906062030 73 77 2.0 3.0 0.00 0.00 0.00 83 1016.9
20260906061018 73 71 2.0 5.0 0.00 0.00 0.00 83 1016.9
20260906060030 73 86 1.0 3.0 0.00 0.00 0.00 83 1017.0
20260906055030 72 63 2.0 5.0 0.00 0.00 0.00 84 1016.9
20260906054030 72 68 3.0 4.0 0.00 0.00 0.00 85 1016.9
20260906053031 72 67 1.0 4.0 0.00 0.00 0.00 86 1016.8
20260906052019 72 76 2.0 5.0 0.00 0.00 0.00 86 1016.6
20260906051019 72 76 2.0 6.0 0.00 0.00 0.00 87 1016.5
20260906050019 72 77 3.0 7.0 0.00 0.00 0.00 87 1016.5
20260906045020 72 82 3.0 9.0 0.00 0.00 0.00 87 1016.4
20260906044017 72 69 3.0 7.0 0.00 0.00 0.00 87 1016.4
20260906043017 72 65 2.0 7.0 0.00 0.00 0.00 87 1016.2
20260906042020 72 77 4.0 7.0 0.00 0.00 0.00 87 1016.2
20260906041020 72 66 3.0 8.0 0.00 0.00 0.00 87 1016.1
20260906040017 72 67 3.0 8.0 0.00 0.00 0.00 86 1016.0
20260906035018 72 74 3.0 7.0 0.00 0.00 0.00 86 1016.0
20260906034018 72 72 4.0 9.0 0.00 0.00 0.00 86 1016.0
20260906033018 72 70 3.0 7.0 0.00 0.00 0.00 86 1016.0
20260906032018 72 79 3.0 7.0 0.00 0.00 0.00 86 1016.0
20260906031018 72 75 4.0 8.0 0.00 0.00 0.00 85 1016.0
20260906030018 72 69 3.0 8.0 0.00 0.00 0.00 85 1016.0
20260906025019 72 66 3.0 7.0 0.00 0.00 0.00 84 1016.0
20260906024019 72 74 4.0 7.0 0.00 0.00 0.00 84 1015.9
20260906023019 73 73 3.0 9.0 0.00 0.00 0.00 84 1016.0
20260906022019 73 55 3.0 6.0 0.00 0.00 0.00 83 1016.1
20260906021019 73 70 3.0 7.0 0.00 0.00 0.00 83 1016.2
20260906020016 73 70 3.0 6.0 0.00 0.00 0.00 83 1016.1
20260906015019 73 74 3.0 5.0 0.00 0.00 0.00 82 1016.2
20260906014020 73 57 3.0 5.0 0.00 0.00 0.00 82 1016.1
20260906013020 73 58 3.0 7.0 0.00 0.00 0.00 82 1016.1
20260906012040 73 62 2.0 6.0 0.00 0.00 0.00 82 1016.0
20260906011017 73 47 2.0 6.0 0.00 0.00 0.00 82 1015.8
20260906010017 73 73 3.0 8.0 0.00 0.00 0.00 82 1015.6
20260906005017 73 60 3.0 8.0 0.00 0.00 0.00 83 1015.5
20260906004017 73 48 3.0 6.0 0.00 0.00 0.00 84 1015.4
20260906003018 73 64 2.0 6.0 0.00 0.00 0.00 83 1015.4
20260906002019 73 54 3.0 8.0 0.00 0.00 0.00 83 1015.3
20260906001018 73 78 2.0 6.0 0.00 0.00 0.00 83 1015.4
20260906000018 73 79 3.0 8.0 0.00 0.00 0.00 82 1015.4
20260905235018 73 39 3.0 9.0 0.00 0.00 0.00 82 1015.5
20260905234018 73 65 3.0 7.0 0.00 0.00 0.00 82 1015.5
20260905233019 73 40 3.0 7.0 0.00 0.00 0.00 82 1015.5
20260905232019 73 46 3.0 9.0 0.00 0.00 0.00 82 1015.3
20260905231019 73 50 3.0 7.0 0.00 0.00 0.00 82 1015.2
20260905230019 73 54 3.0 8.0 0.00 0.00 0.00 81 1015.1
20260905225019 74 54 3.0 10.0 0.00 0.00 0.00 81 1015.2
20260905224100 74 15 3.0 5.0 0.00 0.00 0.00 81 1015.3
20260905223017 75 61 4.0 9.0 0.00 0.00 0.00 81 1015.3
20260905222018 75 23 3.0 7.0 0.00 0.00 0.00 80 1015.1
20260905221037 76 46 3.0 7.0 0.00 0.00 0.00 80 1015.1
20260905220020 76 80 3.0 6.0 0.00 0.00 0.00 79 1015.0
20260905215017 77 36 3.0 8.0 0.00 0.00 0.00 78 1014.9
20260905214017 77 59 3.0 8.0 0.00 0.00 0.00 77 1014.7
20260905213017 78 51 3.0 9.0 0.00 0.00 0.00 77 1014.6
20260905212018 78 57 3.0 8.0 0.00 0.00 0.00 77 1014.6
20260905211018 78 72 3.0 10.0 0.00 0.00 0.00 78 1014.7
20260905210018 79 44 3.0 7.0 0.00 0.00 0.00 74 1014.7
20260905205019 80 51 4.0 11.0 0.00 0.00 0.00 72 1014.7
20260905204019 79 26 3.0 11.0 0.00 0.00 0.00 72 1014.6
20260905203059 78 22 4.0 9.0 0.00 0.00 0.00 75 1014.7
20260905202019 78 7 3.0 8.0 0.00 0.00 0.00 76 1014.7
20260905201039 79 33 3.0 7.0 0.00 0.00 0.00 74 1014.8
20260905200019 80 52 4.0 9.0 0.00 0.00 0.00 72 1014.8
20260905195039 80 36 3.0 9.0 0.00 0.00 0.00 71 1014.8
20260905194016 79 42 3.0 10.0 0.00 0.00 0.00 74 1014.9
20260905193020 79 49 4.0 9.0 0.00 0.00 0.00 73 1014.9
20260905192020 79 44 3.0 12.0 0.00 0.00 0.00 75 1015.0
20260905191020 79 32 3.0 8.0 0.00 0.00 0.00 75 1014.9
20260905190037 79 29 2.0 8.0 0.00 0.00 0.00 74 1014.9
20260905185017 79 31 3.0 10.0 0.00 0.00 0.00 75 1015.1
20260905184018 78 32 2.0 7.0 0.00 0.00 0.00 76 1015.0
20260905183017 78 36 3.0 8.0 0.00 0.00 0.00 77 1015.0
20260905182018 78 359 2.0 6.0 0.00 0.00 0.00 77 1015.1
20260905181018 78 44 3.0 9.0 0.00 0.00 0.00 76 1015.0
20260905180018 78 21 3.0 7.0 0.00 0.00 0.00 77 1014.9
20260905175018 77 12 2.0 7.0 0.00 0.00 0.00 78 1014.9
20260905174018 77 13 3.0 9.0 0.00 0.00 0.00 77 1015.0
20260905173018 77 3 3.0 8.0 0.00 0.00 0.00 77 1014.9
20260905172039 78 6 3.0 9.0 0.00 0.00 0.00 77 1015.0
20260905171019 77 67 4.0 9.0 0.00 0.00 0.00 78 1015.0
20260905170019 77 5 2.0 7.0 0.00 0.00 0.00 80 1015.2
20260905165019 77 34 2.0 5.0 0.00 0.00 0.00 80 1015.2
20260905164019 77 55 3.0 7.0 0.00 0.00 0.00 80 1015.2
20260905163019 77 61 3.0 7.0 0.00 0.00 0.00 79 1015.2
20260905162040 78 46 4.0 9.0 0.00 0.00 0.00 78 1015.1
20260905161017 78 48 3.0 8.0 0.00 0.00 0.00 78 1015.0
20260905160037 78 66 3.0 9.0 0.00 0.00 0.00 79 1014.9
20260905155017 77 19 2.0 7.0 0.00 0.00 0.00 81 1014.8
20260905154021 77 30 3.0 8.0 0.00 0.00 0.00 82 1014.8
20260905153038 77 28 4.0 7.0 0.00 0.00 0.00 82 1014.7
20260905152020 77 77 3.0 7.0 0.00 0.00 0.00 82 1014.6
20260905151038 77 36 2.0 6.0 0.00 0.00 0.00 82 1014.5
20260905150018 77 52 2.0 6.0 0.00 0.00 0.00 82 1014.5
20260905145019 77 78 4.0 8.0 0.00 0.00 0.00 81 1014.4
20260905144018 77 43 2.0 6.0 0.00 0.00 0.00 82 1014.3
20260905143019 77 40 2.0 7.0 0.00 0.00 0.00 82 1014.2
20260905142018 77 66 2.0 6.0 0.00 0.00 0.00 83 1014.2
20260905141019 76 77 3.0 9.0 0.00 0.00 0.00 84 1014.1
20260905140019 76 56 2.0 6.0 0.00 0.00 0.00 87 1014.2
20260905135019 76 29 2.0 7.0 0.00 0.00 0.00 87 1014.3
20260905134019 76 58 2.0 6.0 0.00 0.00 0.00 88 1014.4
20260905133019 75 41 2.0 5.0 0.00 0.00 0.00 88 1014.4
20260905132017 75 24 2.0 5.0 0.00 0.00 0.00 89 1014.0
20260905131017 75 21 2.0 5.0 0.00 0.00 0.00 89 1014.0
20260905130100 75 63 1.0 3.0 0.00 0.00 0.00 89 1014.0
20260905125020 75 23 2.0 4.0 0.00 0.00 0.00 89 1013.8
20260905124020 75 358 1.0 3.0 0.00 0.00 0.00 90 1013.6
20260905123017 74 311 0.0 1.0 0.00 0.00 0.00 91 1013.5
20260905122037 74 56 1.0 3.0 0.00 0.00 0.00 92 1013.3
20260905121017 74 16 1.0 2.0 0.00 0.00 0.00 92 1013.4
20260905120018 73 36 0.0 1.0 0.00 0.00 0.00 93 1013.2
20260905115018 73 40 1.0 3.0 0.00 0.00 0.00 93 1013.0
20260905114018 73 31 2.0 4.0 0.00 0.00 0.00 92 1012.9